Regional Weather Roundup
Issued by NWS

Home | Current Version | Previous Version | Text Only | Print | Product List | Glossary Off
Versions: 1 2 3 4 5 6 7 8 9 10 11 12 13 14 15 16 17 18 19 20 21 22 23 24 25 26 27 28 29 30 31 32 33 34 35 36 37 38 39 40 41 42 43 44 45 46 47 48 49 50

000
ASUS43 KMKX 290400
RWRWI

WISCONSIN REGIONAL WEATHER ROUNDUP
NATIONAL WEATHER SERVICE MILWAUKEE/SULLIVAN WI
1100 PM CDT FRI APR 28 2017

NOTE: "FAIR" INDICATES FEW OR NO CLOUDS BELOW 12,000 FEET WITH NO
SIGNIFICANT WEATHER AND/OR OBSTRUCTIONS TO VISIBILITY.

WIZ001-002-006>008-014>016-023>028-290500-
NORTHWEST WISCONSIN

CITY           SKY/WX    TMP DP  RH WIND       PRES   REMARKS
SUPERIOR ARPT  CLEAR     38  27  65 NE5       30.16R WCI  34
ASHLAND        CLEAR     30  27  88 CALM      30.17R
HAYWARD        MOCLDY    37  27  67 NE9       30.13R WCI  30
SIREN          MOCLDY    42  27  57 NE7       30.11R
CUMBERLAND     MOCLDY    37  30  75 CALM      30.09R
RICE LAKE      PTCLDY    38  32  80 CALM      30.10R
CHETEK         NOT AVBL
LADYSMITH      PTCLDY    36  31  82 CALM      30.10R
EAU CLAIRE     NOT AVBL
MENOMONIE      CLEAR     40  31  68 CALM      30.08F
NEW RICHMOND   CLEAR     37  31  78 CALM      30.09S
OSCEOLA        PTCLDY    36  32  85 CALM      30.13R
$$

WIZ003>005-009-010-017-018-290500-
NORTH CENTRAL WISCONSIN

CITY           SKY/WX    TMP DP  RH WIND       PRES   REMARKS
MANITOWISH WTR NOT AVBL
ARBOR VITAE    PTCLDY    32  27  81 N6        30.10R WCI  27
WOODRUFF       PTCLDY    32  27  81 N6        30.10R WCI  27
RHINELANDER    PTCLDY    35  28  75 N6        30.10R WCI  30
EAGLE RIVER    PTCLDY    31  24  77 N3        30.10R
LAND O LAKES   PTCLDY    31  27  86 CALM      30.11R
PHILLIPS       CLOUDY    35  30  82 N7        30.09R WCI  29
TOMAHAWK       PTCLDY    31  29  92 CALM      30.09R
MEDFORD        CLEAR     35  29  79 CALM      30.07S
MERRILL        CLOUDY    35  32  90 CALM      30.09R
$$

WIZ029-030-035-036-043>047-290500-
CENTRAL WISCONSIN

CITY           SKY/WX    TMP DP  RH WIND       PRES   REMARKS
WAUSAU         CLOUDY    39  29  67 NE3       30.07R
MOSINEE        CLOUDY    39  30  70 N5        30.09R
MARSHFIELD     CLOUDY    41  29  62 NE6       30.05S
STEVENS POINT  CLOUDY    40  31  69 N5        30.08R
WAUPACA        CLOUDY    47  35  62 N5        30.06R
WAUTOMA        CLOUDY    45  35  68 N6        30.07R
WISC RAPIDS    CLOUDY    44  32  62 N9        30.07R
CAMP DOUGLAS   NOT AVBL
$$

WIZ011>013-019>022-031-037>040-048>050-290500-
NORTHEAST WISCONSIN

CITY           SKY/WX    TMP DP  RH WIND       PRES   REMARKS
ANTIGO         CLOUDY    34  31  89 N5        30.07R WCI  29
SHAWANO        CLOUDY    46  32  58 N7        30.08R
OCONTO         NOT AVBL
STURGEON BAY   CLOUDY    43  34  70 N7        30.08R
GREEN BAY      CLOUDY    47  34  60 N16       30.07R
MANITOWOC      NOT AVBL
APPLETON       CLOUDY    46  32  57 N8        30.04R
CLINTONVILLE   CLOUDY    45  32  61 N7        30.07R
OSHKOSH        CLOUDY    46  36  68 N9        30.05R
$$

WIZ032>034-041-042-053>061-290500-
SOUTHWEST WISCONSIN

CITY           SKY/WX    TMP DP  RH WIND       PRES   REMARKS
LA CROSSE      CLOUDY    46  33  60 N6        30.06S
SPARTA         CLOUDY    44  35  71 CALM      30.07R
VIROQUA        CLOUDY    42  37  80 N5        30.04R
BOSCOBEL       CLOUDY    46  40  79 CALM      30.06R
PRAIRIE DU CHI CLOUDY    45  38  76 CALM      30.04S
PLATTEVILLE    CLOUDY    45  42  91 NE9       30.03R
$$

WIZ056-057-062-063-064-067-068-290500-
SOUTH CENTRAL WISCONSIN

CITY           SKY/WX    TMP DP  RH WIND       PRES   REMARKS
REEDSBURG      NOT AVBL
BARABOO/DELLS  CLOUDY    43  37  79 CALM      30.05R
LONE ROCK      NOT AVBL
MINERAL POINT  CLOUDY    45  41  87 NE7       30.03R
MADISON        CLOUDY    45  40  82 N6        30.04R
MIDDLETON      CLOUDY    46  41  84 N5        30.05R
WATERTOWN      CLOUDY    45  45 100 N6        30.03R
MONROE         CLOUDY    43  43 100 N15       30.01R
JANESVILLE     CLOUDY    46  45  93 N7        30.01R
$$

WIZ051-052-058>065-066-070>072-290500-
SOUTHEAST WISCONSIN

CITY           SKY/WX    TMP DP  RH WIND       PRES   REMARKS
MILWAUKEE      CLOUDY    45  42  89 NE7       30.02R
WAUKESHA       CLOUDY    43  41  93 N6        30.03
MILWAUKEE/TIMM CLOUDY    43  39  87 N6        30.03R
RACINE         CLOUDY    42  38  85 N10       30.04R
KENOSHA        CLOUDY    46  41  82 NE7       30.02R
FOND DU LAC    CLOUDY    47  37  68 N6        30.05R
SHEBOYGAN      LGT RAIN  43  40  89 CALM      30.04R FOG
WEST BEND      CLOUDY    43  43 100 CALM      30.03R FOG
JUNEAU         CLOUDY    44  41  89 CALM      30.05R
$$

LSZ147-162-290500-
LAKE SUPERIOR

STATION/POSITION TIME  TEMP    WIND        PRES    WAVE
                       AIR SEA DIR/SP/G            HT/PER
                 (UTC) (F)     (DEG/KT/KT) (MB)    (FT/S)
DEVILS ISLAND    0300   39     320/ 10/ 11 1020.7R
PORT WING        0340   36     150/  2/  3 1021.3R
SAXON HARBOR     0340   32     200/  2/  3 1021.0R
$$

LMZ867-665-643>646-290500-
LAKE MICHIGAN

STATION/POSITION TIME  TEMP    WIND        PRES    WAVE
                       AIR SEA DIR/SP/G            HT/PER
                 (UTC) (F)     (DEG/KT/KT) (MB)    (FT/S)
CHAMBERS ISLAND  0340   41     320/  7/  9 1018.3R
N MID LAKE BUOY  0250   38 37  220/  8/ 10 1018.9R   2/ 5
NORTHPORT PIER   0330   40     340/  8/ 12 1018.3R
SISTER BAY       0151   40        CALM       N/A
KEWAUNEE LAKESHO 0330   43     360/  5/  8 1017.5R
SHEBOYGAN LAKESH 0300   40      40/  2/  3 1017.2R
PORT WASHINGTON  0340   43     340/  4/  6 1017.6S
MILWAUKEE LAKESH 0330   43     360/  9/ 13   N/A
S MID LAKE BUOY  0250   43 41   10/ 14/ 16 1015.6R   1
KENOSHA   LAKESH 0300   43      20/ 19/ 22 1015.9
$$

TC  - TEMPERATURE IN CELSIUS
VSB - VISIBILITY IN STATUTE MILES
WCI - WIND CHILL INDEX
HX  - HEAT INDEX





USA.gov is the U.S. government's official web portal to all federal, state and local government web resources and services.